New York, NY

4:28 PM EST on December 15, 2019 (GMT -0500)
La Guardia

Weather History for KLGA - November, 2019

Change the Weather History Date:

Sunday, November 17, 2019

  Actual Average Record
Temperature  
Mean Temperature 37 °F 48 °F  
Max Temperature 44 °F 54 °F 72 °F (1953)
Min Temperature 30 °F 41 °F 27 °F (1959)
Degree Days  
Heating Degree Days 28 17  
Month to date heating degree days 344 250  
Since 1 July heating degree days 498 522  
Cooling Degree Days 0 0  
Month to date cooling degree days 0 0  
Year to date cooling degree days 1484 1213  
Moisture  
Dew Point 25 °F    
Average Humidity 57    
Maximum Humidity 65    
Minimum Humidity 35    
Precipitation  
Precipitation 0.00 in 0.12 in 1.49 in (2014)
Month to date precipitation 0.17 1.87  
Year to date precipitation 42.23 39.63  
Snow  
Snow 0.00 in 0.00 in 0.20 in (1980)
Month to date snowfall 0.0 0.0  
Since 1 July snowfall 0.0 0.0  
Snow Depth 0.00 in    
Sea Level Pressure  
Sea Level Pressure 30.25 in    
Wind  
Wind Speed 16 mph ()    
Max Wind Speed 29 mph    
Max Gust Speed 33 mph    
Visibility 10.0 miles    
Events      
T = Trace of Precipitation, MM = Missing Value Source: Averaged Metar Reports

Daily Weather History Graph

Daily Weather History Graph

Search for Another Location

Airport or City:

Astronomy

Nov. 17, 2019 Rise Set
Actual Time 6:44 AM EST 4:35 PM EST
Civil Twilight 6:14 AM EST 5:05 PM EST
Nautical Twilight 5:41 AM EST 5:38 PM EST
Astronomical Twilight 5:09 AM EST 6:11 PM EST
Moon 9:09 PM EST (11/17) 11:28 AM EST (11/17)
Length of Visible Light 10h 50m
Length of Day
9h 51m
Waning Gibbous, 73% of the Moon is Illuminated
Nov 17
Waning Gibbous
Nov 19
Last Quarter
Nov 26
New
Dec 4
First Quarter
Dec 12
Full

Hourly Weather History & Observations

Time (EST) Temp. Windchill Dew Point Humidity Pressure Visibility Wind Dir Wind Speed Gust Speed Precip Events Conditions
12:51 AM 32.0 °F 21.6 °F 9.0 °F 38% 30.43 in 10.0 mi NNE 15.0 mph - N/A   Partly Cloudy
1:51 AM 30.9 °F 21.2 °F 9.0 °F 40% 30.42 in 10.0 mi NNE 12.7 mph - N/A   Partly Cloudy
2:51 AM 30.9 °F 20.2 °F 9.0 °F 40% 30.41 in 10.0 mi North 15.0 mph - N/A   Mostly Cloudy
3:51 AM 32.0 °F 21.2 °F 10.9 °F 42% 30.39 in 10.0 mi NNE 16.1 mph - N/A   Overcast
4:51 AM 32.0 °F 23.6 °F 14.0 °F 48% 30.38 in 10.0 mi NNE 10.4 mph 19.6 mph N/A   Overcast
5:51 AM 32.0 °F 21.6 °F 15.1 °F 50% 30.37 in 10.0 mi NNE 15.0 mph - N/A   Overcast
6:51 AM 34.0 °F 25.0 °F 18.0 °F 52% 30.38 in 10.0 mi NE 12.7 mph - N/A   Overcast
7:51 AM 36.0 °F 26.7 °F 21.0 °F 55% 30.37 in 10.0 mi NNE 15.0 mph 29.9 mph N/A   Mostly Cloudy
8:51 AM 37.0 °F 25.6 °F 25.0 °F 62% 30.37 in 10.0 mi NE 24.2 mph 28.8 mph N/A   Mostly Cloudy
9:51 AM 39.0 °F 28.0 °F 26.1 °F 60% 30.35 in 10.0 mi NE 25.3 mph - N/A   Mostly Cloudy
10:51 AM 39.9 °F 29.0 °F 27.0 °F 60% 30.33 in 10.0 mi NE 26.5 mph - N/A   Mostly Cloudy
11:51 AM 42.1 °F 32.8 °F 30.0 °F 62% 30.30 in 10.0 mi NE 21.9 mph 32.2 mph N/A   Mostly Cloudy
12:51 PM 43.0 °F 33.3 °F 30.0 °F 60% 30.26 in 10.0 mi NE 25.3 mph 33.4 mph N/A   Mostly Cloudy
1:51 PM 43.0 °F 33.8 °F 30.9 °F 62% 30.24 in 10.0 mi NE 23.0 mph 32.2 mph N/A   Mostly Cloudy
2:51 PM 43.0 °F 33.8 °F 30.9 °F 62% 30.21 in 10.0 mi ENE 23.0 mph - N/A   Overcast
3:51 PM 42.1 °F 32.6 °F 30.0 °F 62% 30.19 in 10.0 mi ENE 23.0 mph - N/A   Overcast
4:51 PM 42.1 °F 32.6 °F 30.0 °F 62% 30.18 in 10.0 mi NE 23.0 mph - N/A   Overcast
5:51 PM 43.0 °F 34.0 °F 30.0 °F 60% 30.17 in 10.0 mi ENE 21.9 mph - N/A   Overcast
6:08 PM 44.1 °F 36.5 °F 30.9 °F 60% 30.17 in 10.0 mi ENE 17.3 mph 29.9 mph N/A   Overcast
6:21 PM 42.1 °F 32.6 °F 30.0 °F 62% 30.16 in 10.0 mi ENE 23.0 mph 28.8 mph N/A   Overcast
6:51 PM 42.1 °F 33.1 °F 30.9 °F 65% 30.16 in 10.0 mi NE 20.7 mph 29.9 mph N/A   Overcast
7:51 PM 42.1 °F 32.8 °F 30.0 °F 62% 30.13 in 10.0 mi NE 21.9 mph - N/A   Overcast
8:51 PM 42.1 °F 33.6 °F 30.0 °F 62% 30.10 in 10.0 mi NE 18.4 mph - N/A   Overcast
9:51 PM 39.9 °F 32.1 °F 28.9 °F 65% 30.09 in 10.0 mi NNE 13.8 mph - N/A   Overcast
10:00 PM 39.9 °F 32.1 °F 28.9 °F 65% 30.08 in 10.0 mi NNE 13.8 mph - N/A   Overcast
10:51 PM 39.9 °F 32.1 °F 28.9 °F 65% 30.06 in 10.0 mi NNE 13.8 mph - N/A   Overcast
11:51 PM 39.9 °F 32.5 °F 28.9 °F 65% 30.04 in 10.0 mi NNE 12.7 mph - N/A   Overcast